Mt. Pocono, PA

8:16 AM EST on December 10, 2019 (GMT -0500)
Pocono Mountains Municipal

Weather History for KMPO - September, 2019

Change the Weather History Date:

Wednesday, September 18, 2019

  Actual Average Record
Temperature  
Mean Temperature 56 °F 58 °F  
Max Temperature 68 °F 67 °F 83 °F (1964)
Min Temperature 43 °F 49 °F 30 °F (1990)
Degree Days  
Heating Degree Days 10 7  
Month to date heating degree days 63 86  
Since 1 July heating degree days 104 149  
Cooling Degree Days 0 0  
Month to date cooling degree days 19 13  
Year to date cooling degree days 337 309  
Growing Degree Days 6 (Base 50)    
Moisture  
Dew Point 44 °F    
Average Humidity 69    
Maximum Humidity 93    
Minimum Humidity 37    
Precipitation  
Precipitation 0.00 in 0.17 in 5.41 in (2012)
Month to date precipitation 0.92 3.03  
Year to date precipitation 35.85 34.01  
Sea Level Pressure  
Sea Level Pressure 30.26 in    
Wind  
Wind Speed 5 mph ()    
Max Wind Speed 14 mph    
Max Gust Speed 18 mph    
Visibility 10.0 miles    
Events      
T = Trace of Precipitation, MM = Missing Value Source: Averaged Metar Reports

Daily Weather History Graph

Daily Weather History Graph

Search for Another Location

Airport or City:

Astronomy

Sep. 18, 2019 Rise Set
Actual Time 6:44 AM EDT 7:05 PM EDT
Civil Twilight 6:17 AM EDT 7:33 PM EDT
Nautical Twilight 5:44 AM EDT 8:05 PM EDT
Astronomical Twilight 5:11 AM EDT 8:38 PM EDT
Moon 9:36 PM EDT (9/18) 10:47 AM EDT (9/18)
Length of Visible Light 13h 16m
Length of Day
12h 21m
Waning Gibbous, 82% of the Moon is Illuminated
Sep 18
Waning Gibbous
Sep 21
Last Quarter
Sep 28
New
Oct 5
First Quarter
Oct 13
Full

Hourly Weather History & Observations

Time (EDT) Temp. Windchill Dew Point Humidity Pressure Visibility Wind Dir Wind Speed Gust Speed Precip Events Conditions
12:53 AM 48.9 °F - 44.1 °F 83% 30.20 in 10.0 mi North 4.6 mph - N/A   Clear
1:53 AM 48.9 °F - 44.1 °F 83% 30.20 in 10.0 mi NNE 5.8 mph - N/A   Clear
2:53 AM 46.0 °F 43.1 °F 43.0 °F 89% 30.20 in 10.0 mi NNE 5.8 mph - N/A   Clear
3:53 AM 48.9 °F - 44.1 °F 83% 30.20 in 10.0 mi NNE 6.9 mph - N/A   Clear
4:53 AM 46.9 °F - 43.0 °F 86% 30.21 in 10.0 mi NNE 3.5 mph - N/A   Clear
5:53 AM 46.9 °F - 43.0 °F 86% 30.22 in 10.0 mi North 4.6 mph - N/A   Clear
6:53 AM 45.0 °F 40.6 °F 43.0 °F 93% 30.25 in 10.0 mi NNE 8.1 mph - N/A   Clear
7:53 AM 50.0 °F - 46.0 °F 86% 30.26 in 10.0 mi NNE 9.2 mph - N/A   Clear
8:53 AM 55.0 °F - 46.0 °F 72% 30.27 in 10.0 mi NE 9.2 mph - N/A   Clear
9:53 AM 55.9 °F - 46.0 °F 69% 30.27 in 10.0 mi NE 9.2 mph - N/A   Clear
10:53 AM 57.9 °F - 45.0 °F 62% 30.28 in 10.0 mi Variable 4.6 mph - N/A   Clear
11:53 AM 61.0 °F - 46.0 °F 58% 30.27 in 10.0 mi ENE 8.1 mph - N/A   Clear
12:53 PM 63.0 °F - 45.0 °F 52% 30.27 in 10.0 mi Variable 3.5 mph - N/A   Clear
2:53 PM 66.9 °F - 43.0 °F 42% 30.26 in 10.0 mi NNE 9.2 mph - N/A   Clear
3:53 PM 66.9 °F - 39.9 °F 37% 30.25 in 10.0 mi NE 6.9 mph - N/A   Clear
4:53 PM 66.9 °F - 41.0 °F 39% 30.25 in 10.0 mi North 8.1 mph - N/A   Clear
5:53 PM 64.9 °F - 39.9 °F 40% 30.26 in 10.0 mi NNE 9.2 mph - N/A   Clear
6:53 PM 59.0 °F - 45.0 °F 60% 30.28 in 10.0 mi Variable 5.8 mph - N/A   Clear
7:53 PM 55.0 °F - 46.0 °F 72% 30.30 in 10.0 mi East 4.6 mph - N/A   Clear
8:53 PM 53.1 °F - 46.0 °F 77% 30.31 in 10.0 mi ENE 4.6 mph - N/A   Clear
9:53 PM 52.0 °F - 44.1 °F 74% 30.32 in 10.0 mi ENE 5.8 mph - N/A   Clear
10:53 PM 51.1 °F - 43.0 °F 74% 30.33 in 10.0 mi ENE 4.6 mph - N/A   Clear
11:53 PM 50.0 °F - 43.0 °F 77% 30.34 in 10.0 mi ENE 5.8 mph - N/A   Clear